Theta_e
332 332 332 332 332 331 331 331 330 331 329 329 328 326 325 323 322 321 319 317 315 314 313 313 312 312 311 311 310 309 308 307 307 306 305 303 303 303 302 302 301 301 302 300 300 299 299 298 297 298 298 299 299 299 299 299 300 300 300 300 299 300 300 299 296 296 297 298 299 299 300 299 296 296 298 299 299 300 300 300 301 301 301 301 301
331 332 332 332 331 331 331 331 331 330 329 328 327 326 325 324 322 320 319 317 315 314 313 312 311 311 310 310 309 309 308 307 306 305 304 303 302 302 302 301 301 300 300 299 299 300 299 298 297 297 298 298 298 298 298 299 299 300 300 300 299 299 300 299 297 296 296 298 299 298 300 298 297 296 298 299 300 300 300 299 299 299 300 300 300
332 332 332 332 331 331 331 331 330 329 329 328 327 326 325 323 322 321 319 316 315 314 313 311 310 310 310 309 308 308 307 306 306 305 304 303 302 302 302 301 301 300 299 299 299 298 298 299 297 298 298 298 298 298 299 299 300 299 300 300 300 300 300 299 297 295 295 296 297 298 299 298 298 296 297 299 300 297 297 299 299 300 301 301 300
332 332 332 331 331 331 330 330 330 329 328 328 327 326 324 323 322 321 317 315 314 313 311 310 310 309 308 308 308 307 306 306 305 304 303 303 302 301 301 301 301 300 300 299 298 298 298 297 297 298 299 297 297 298 298 299 299 299 299 299 299 299 299 299 299 296 296 295 297 297 297 298 296 296 297 298 297 298 297 299 300 300 300 300 299
332 332 332 330 330 330 329 329 328 328 327 327 326 325 323 322 321 319 317 315 314 312 310 310 309 308 307 307 307 306 306 305 304 303 303 303 302 302 301 300 300 300 300 299 301 298 299 298 297 298 298 297 297 297 298 298 297 299 298 298 298 298 298 298 298 298 296 295 296 297 296 296 296 297 297 297 298 298 299 299 299 299 299 300 300
332 332 331 330 329 329 329 328 328 327 327 326 325 324 323 322 320 319 317 314 312 312 309 308 308 307 307 306 306 306 305 305 304 303 303 302 302 302 301 301 300 300 299 300 299 299 299 298 297 297 298 298 297 297 297 297 296 297 296 296 295 296 297 297 297 297 296 295 296 295 295 298 298 299 296 297 297 298 298 299 300 299 299 299 300
332 331 331 330 329 328 328 328 327 327 326 325 325 324 322 321 320 317 316 314 312 310 309 308 308 307 306 306 306 305 305 304 303 303 302 302 302 301 301 300 300 299 299 300 299 299 298 298 298 297 298 297 297 297 296 296 297 296 296 295 295 297 296 296 296 295 295 294 294 295 295 295 295 299 297 295 296 296 297 297 299 299 299 298 298
331 331 330 329 329 328 328 328 327 327 326 325 324 323 322 320 318 316 316 314 313 311 309 308 307 307 306 306 305 305 304 303 302 302 302 302 302 301 301 300 300 300 300 299 299 298 298 298 298 297 298 297 297 296 297 296 296 296 294 294 295 296 295 295 295 294 294 294 295 295 293 294 296 294 295 295 297 296 296 296 296 297 298 298 297
331 331 330 329 328 329 328 327 327 326 325 324 323 322 320 319 317 316 315 314 313 311 309 308 307 306 305 305 305 305 304 303 303 302 302 301 301 301 301 301 300 300 299 298 298 298 298 298 298 297 300 301 301 299 298 298 296 295 293 294 295 295 294 294 294 293 293 294 293 292 294 295 293 293 296 296 296 296 296 296 296 297 296 295 298
331 330 329 329 329 328 327 327 326 325 323 322 322 320 318 317 317 316 315 314 312 310 309 308 307 305 304 304 304 304 304 303 305 305 304 302 301 301 301 301 300 300 299 297 297 297 297 297 300 303 304 304 302 300 298 299 298 296 294 294 295 294 294 293 293 293 294 293 294 293 294 294 295 295 295 295 296 295 295 295 295 296 296 297 298
331 330 329 329 328 327 326 326 325 323 323 322 321 319 318 317 316 315 314 313 311 310 308 307 306 305 305 304 303 303 303 304 302 297 298 301 302 301 301 300 300 299 299 298 297 297 296 296 299 306 306 305 301 298 297 296 296 296 296 296 297 295 293 292 292 293 295 294 292 292 294 294 294 294 294 296 295 296 296 296 295 294 294 293 293
330 330 330 328 327 326 326 325 323 322 322 321 320 319 318 317 315 314 313 312 311 310 308 307 306 305 304 304 303 303 303 303 297 296 296 297 301 302 301 300 300 298 298 297 297 296 295 298 301 304 301 300 299 298 298 296 294 294 293 294 294 294 295 294 294 292 293 293 292 293 293 294 295 293 294 294 297 297 296 295 294 294 293 292 293
330 329 329 328 327 326 325 323 322 321 320 320 319 318 317 316 315 314 313 312 310 308 307 307 305 305 304 303 303 303 303 299 296 296 296 296 297 301 301 300 299 298 297 296 296 295 297 299 298 297 301 304 300 297 297 298 296 295 295 296 295 293 291 292 293 296 294 294 294 293 293 294 294 295 297 298 299 297 297 296 294 293 293 292 293
330 328 328 327 326 326 324 323 321 320 320 319 318 317 316 315 315 314 313 311 309 308 307 305 304 304 303 303 302 302 302 299 295 296 295 295 295 298 300 300 299 298 297 296 295 296 297 298 297 296 299 300 295 296 295 295 296 297 297 296 296 299 294 292 292 293 295 296 295 295 295 295 298 297 300 299 297 297 296 296 296 296 295 295 296
329 328 327 326 326 325 324 323 321 320 319 318 318 317 316 315 314 313 312 310 309 307 306 304 304 303 303 303 302 301 302 297 295 295 295 295 294 297 300 300 299 297 297 296 296 296 297 297 296 296 297 298 295 295 294 294 296 296 296 295 295 296 297 296 295 295 297 295 295 297 297 296 298 299 299 299 299 299 299 298 297 296 295 296 296
328 327 326 325 325 324 323 322 320 320 319 318 317 316 316 315 313 313 311 310 309 308 306 305 304 303 303 303 302 301 302 295 294 294 294 294 295 301 300 299 298 297 296 296 296 297 297 297 297 296 298 298 297 294 295 296 297 296 296 296 296 297 297 299 295 295 297 297 296 296 297 297 295 298 298 298 297 297 298 298 297 296 295 296 296
327 326 325 325 324 324 323 322 320 319 318 317 317 316 315 314 313 312 310 309 308 306 305 304 304 303 303 303 303 302 302 297 294 294 294 293 297 301 300 299 298 297 296 296 297 297 298 298 297 295 297 297 297 292 293 296 297 296 296 296 297 296 297 297 294 293 293 292 292 291 291 291 291 292 292 292 296 297 296 295 296 294 295 295 295
327 325 325 324 324 324 323 321 319 318 318 317 317 316 315 314 313 312 310 308 307 306 305 304 304 304 303 303 303 303 302 299 294 294 294 294 299 300 300 299 297 297 297 297 297 298 299 301 299 295 295 296 295 293 292 296 297 296 296 296 295 294 295 294 293 294 292 292 292 291 291 291 291 292 292 292 292 295 297 297 299 295 296 295 294
326 325 324 324 324 324 322 321 319 318 318 317 317 316 315 314 313 312 311 310 308 307 305 304 303 304 304 304 305 304 303 300 294 294 294 294 299 301 300 299 298 297 297 298 299 298 298 303 302 298 296 296 294 293 292 296 297 296 296 297 296 295 296 293 292 292 293 293 294 295 295 295 298 298 299 295 293 296 298 299 298 298 296 296 296
327 326 325 324 324 323 321 319 318 318 318 317 316 315 315 313 312 311 310 310 307 306 305 304 303 303 303 303 304 304 303 301 297 293 294 294 297 301 301 300 298 298 298 298 297 297 297 297 300 295 293 293 293 292 292 292 296 296 296 295 295 295 296 292 292 292 294 296 295 295 296 296 296 297 296 296 297 300 299 298 298 298 298 297 297
326 325 324 323 322 321 320 319 318 317 317 316 315 314 313 312 311 311 309 308 307 305 305 304 304 303 303 303 303 303 303 302 298 293 294 294 295 298 301 301 301 300 299 299 299 298 297 297 297 297 293 293 292 292 292 291 293 296 296 295 296 297 294 293 294 296 293 295 296 297 296 297 296 296 296 297 297 299 300 298 298 298 299 298 296
324 323 323 322 321 320 319 318 318 317 317 316 315 314 313 313 311 311 309 307 306 304 304 303 303 302 301 302 303 303 304 303 300 294 293 294 295 296 301 302 301 301 299 300 299 299 299 299 298 297 294 293 292 292 291 291 291 296 295 292 293 291 295 295 294 296 295 294 293 294 295 295 296 296 298 298 299 299 299 298 297 297 298 300 298
323 322 321 320 319 318 318 317 316 317 316 315 314 312 311 311 310 309 308 307 305 304 303 303 302 301 300 301 302 302 302 302 298 297 293 293 294 295 297 299 295 302 301 300 299 299 300 300 300 298 293 293 292 291 291 290 291 293 291 291 291 290 292 294 293 294 293 293 293 293 293 294 295 296 296 297 297 296 296 296 296 296 296 297 297
322 320 318 319 318 317 316 316 316 316 315 314 313 311 310 310 309 308 307 306 305 304 303 303 301 300 299 299 300 301 301 301 297 296 295 292 293 294 294 295 295 301 302 301 301 300 300 300 299 295 293 293 292 291 290 290 291 290 290 291 290 290 294 293 291 292 291 291 292 292 292 293 293 294 295 296 296 296 296 296 297 296 296 296 296
320 319 319 318 317 316 316 315 315 315 314 313 311 310 310 309 308 308 307 306 305 304 303 302 301 300 299 299 299 300 300 300 299 296 294 293 293 293 293 293 294 295 300 301 300 300 297 295 294 293 293 293 292 291 290 290 289 289 290 290 293 292 293 293 292 292 291 291 291 292 292 293 294 295 296 295 295 295 295 297 296 295 295 295 295
318 318 317 317 316 315 314 315 315 314 313 313 311 311 310 309 308 307 307 306 306 304 303 302 301 300 300 300 299 299 299 299 298 298 296 296 294 292 293 292 294 295 298 300 296 294 293 293 293 292 292 293 294 294 293 293 289 289 289 291 294 292 292 293 292 291 292 291 291 291 291 292 293 294 294 294 294 296 296 297 297 298 296 297 298
316 316 315 315 314 314 314 314 313 313 313 312 312 311 310 310 308 306 307 306 305 304 302 301 301 300 300 300 299 299 298 298 298 298 297 297 297 297 295 295 294 293 296 299 296 297 295 296 295 293 293 291 292 291 291 291 291 291 291 292 291 292 292 292 292 292 292 291 291 291 292 293 293 292 293 294 294 295 294 295 296 296 296 295 295
316 316 315 314 313 313 313 303 309 312 312 312 311 310 310 309 308 307 307 307 305 304 302 301 301 301 300 300 299 299 298 298 298 298 297 297 297 297 296 296 296 296 297 299 298 297 295 293 292 294 294 292 292 292 292 291 291 289 289 290 291 291 292 292 293 291 291 292 292 292 291 292 292 293 293 293 294 294 294 294 295 296 295 295 295
315 315 314 313 312 310 312 311 312 312 312 311 311 311 310 309 309 309 309 310 308 306 305 304 304 304 303 301 300 299 299 298 299 296 298 294 295 296 295 296 296 296 297 294 295 293 292 293 293 292 292 293 289 292 291 290 290 290 290 289 289 290 291 291 290 291 291 292 291 291 291 292 292 292 292 292 294 294 294 294 294 295 294 292 294
315 313 313 313 312 311 311 311 312 311 311 311 309 306 297 302 307 309 308 302 301 301 301 306 306 305 303 303 303 301 300 301 297 294 294 293 293 293 294 294 293 295 293 291 293 291 292 292 292 291 291 291 291 290 291 291 290 289 289 288 289 289 290 291 291 291 292 292 292 290 291 291 291 292 292 292 293 294 293 291 294 293 294 293 293
313 313 312 312 310 311 311 311 312 312 311 310 309 306 304 298 292 297 300 298 298 297 298 298 298 298 303 303 301 298 298 296 293 294 293 293 292 292 292 292 292 291 290 292 292 291 290 290 290 290 290 292 289 290 290 289 289 289 290 289 290 290 289 291 291 291 290 288 289 290 290 290 290 290 290 291 292 293 293 292 292 293 294 294 292
313 312 312 311 307 308 312 311 310 311 310 310 307 306 305 302 300 292 293 295 295 295 296 295 296 297 297 300 302 301 294 292 293 293 293 292 292 291 291 291 291 290 290 292 291 290 291 291 289 289 289 289 289 289 290 290 289 290 289 288 289 289 289 290 291 292 290 289 288 288 288 289 290 290 290 291 291 292 292 292 292 292 292 292 292
313 312 312 309 308 306 309 309 309 310 309 307 305 306 305 304 302 298 295 291 292 293 294 294 295 295 295 296 296 296 295 293 292 293 293 292 291 291 291 291 291 290 290 292 291 290 290 292 292 291 289 288 290 290 290 290 290 290 290 290 289 290 290 291 291 292 290 291 289 289 289 289 289 289 288 289 289 290 291 290 291 291 292 291 290
314 312 310 308 309 309 309 309 309 309 308 307 307 306 303 305 305 301 298 297 297 293 292 292 293 294 294 295 295 294 294 293 292 292 292 292 291 290 290 290 289 290 291 292 291 290 292 292 292 292 292 291 291 290 289 290 290 290 289 290 291 291 291 292 292 291 290 290 290 289 289 289 289 289 289 289 289 290 289 290 291 291 289 291 292
314 302 297 301 309 309 309 310 309 309 308 307 305 304 304 303 302 300 300 299 300 300 298 296 292 293 297 294 294 294 293 293 292 292 291 291 290 290 290 291 289 290 292 293 292 293 292 292 292 293 294 294 292 291 289 290 290 290 290 290 291 291 291 290 290 292 291 291 290 289 289 289 289 289 288 289 289 289 289 290 291 291 292 292 291
308 306 306 306 308 309 309 309 309 308 307 307 306 305 303 301 300 300 299 299 299 298 295 295 293 292 293 294 292 292 292 292 292 292 291 290 290 290 290 289 289 289 290 291 291 292 292 293 292 293 294 294 295 292 292 291 290 290 291 291 290 290 291 291 289 290 291 290 290 288 289 289 289 288 289 289 290 290 290 289 291 290 290 291 290
308 307 308 308 309 308 308 308 308 307 301 301 302 303 302 301 301 301 300 300 299 298 297 293 293 294 293 295 292 291 291 291 291 291 290 290 290 293 295 292 292 291 290 291 290 291 291 292 292 293 293 294 294 293 293 292 292 292 290 291 291 290 290 290 289 288 288 288 288 288 288 288 288 288 288 288 289 289 289 290 289 289 288 288 286
307 307 308 308 307 306 306 306 303 294 299 302 303 302 300 301 301 300 300 300 298 296 295 295 294 297 297 296 296 294 291 290 290 290 290 289 289 292 295 293 293 293 291 292 291 291 291 292 292 292 293 293 294 294 293 293 293 292 291 290 290 289 289 289 288 289 288 288 288 288 288 288 288 288 287 288 289 288 288 288 289 289 288 287 287
305 298 295 296 298 306 305 301 299 302 301 301 302 300 298 299 299 300 300 298 296 296 295 296 296 297 298 295 293 293 293 292 292 291 290 291 291 292 293 293 293 293 293 293 292 291 293 293 292 292 292 293 293 293 293 292 292 292 293 291 291 290 289 289 289 288 288 289 289 288 288 288 288 287 287 287 288 288 288 288 288 289 290 290 289
302 300 296 294 299 300 299 300 300 300 300 301 301 300 298 298 299 299 299 298 297 296 297 296 296 297 297 294 293 293 295 293 292 292 291 290 290 291 292 292 292 293 292 293 293 293 293 293 293 292 292 293 293 292 292 292 291 291 291 290 290 289 289 289 289 289 289 289 289 289 288 288 288 287 287 288 289 289 289 289 289 289 289 290 290
301 300 295 296 296 300 299 299 300 301 300 299 300 299 299 298 299 297 299 298 296 296 297 297 298 298 295 292 291 291 295 294 293 293 292 292 291 291 292 292 293 293 293 292 293 293 293 294 293 293 293 292 293 293 292 292 291 290 289 289 289 289 289 289 288 289 289 288 289 289 288 288 288 288 288 288 288 289 289 290 290 290 288 288 289
300 299 300 298 297 300 300 299 299 297 299 298 299 300 297 297 299 299 297 298 295 295 297 297 297 296 293 291 290 290 295 295 294 293 293 292 292 292 292 292 293 293 293 293 293 293 293 293 293 293 292 292 292 291 292 291 291 290 289 289 288 288 288 289 289 288 288 288 288 288 289 289 289 289 289 290 289 289 289 289 289 288 288 288 289
300 300 300 298 299 299 299 298 299 300 299 299 300 296 296 298 298 298 296 296 295 295 296 296 296 294 291 289 289 289 293 293 290 292 292 291 291 291 291 291 292 292 293 294 294 294 293 292 291 291 291 292 292 291 290 290 289 289 290 289 289 289 288 289 289 289 289 289 289 288 288 288 288 289 289 288 288 288 289 288 288 289 289 289 289
299 299 299 299 298 298 298 299 299 298 299 296 296 297 296 298 299 298 298 296 295 294 296 296 294 293 292 290 288 290 292 293 292 292 291 291 291 291 291 291 291 291 291 292 292 292 291 290 290 291 292 292 292 292 291 291 289 289 289 289 289 288 289 289 289 289 289 289 289 289 288 288 288 288 288 288 288 288 289 288 289 289 289 289 289
301 300 299 299 299 298 298 297 297 296 294 295 298 298 297 299 299 298 297 297 295 295 295 295 294 293 291 290 290 291 292 293 291 291 291 291 290 291 291 291 290 290 290 290 290 291 291 290 290 289 289 290 291 292 292 292 292 291 291 290 289 289 289 289 289 290 289 288 289 289 289 289 288 288 288 288 288 289 290 289 289 288 288 288 288
301 300 299 298 297 298 298 297 293 296 297 298 299 299 299 300 300 298 297 297 296 295 295 294 294 294 292 291 291 291 292 292 292 291 291 291 291 291 291 291 291 290 290 289 289 290 290 290 289 289 288 289 290 290 291 291 291 291 291 291 291 290 292 292 291 289 288 288 289 289 289 289 289 289 288 290 290 290 290 289 289 289 290 289 288
301 300 299 298 298 296 296 296 296 295 297 297 298 299 298 300 300 297 295 297 296 294 295 296 295 295 294 293 291 291 291 291 291 291 291 292 292 291 291 291 290 290 290 290 290 290 288 289 289 288 288 288 289 289 290 290 290 290 290 291 290 291 291 290 290 289 290 288 289 289 289 289 289 289 289 289 289 289 288 289 289 288 288 288 288
300 299 299 297 297 297 296 295 294 291 295 296 296 296 296 297 298 298 298 297 297 296 296 296 296 296 295 295 294 294 293 292 292 291 292 292 292 292 292 291 289 290 289 289 289 288 288 288 287 288 287 287 287 288 289 289 290 290 290 290 290 290 289 287 290 291 291 290 289 289 289 289 290 289 289 288 289 289 289 289 288 288 287 287 287
299 299 298 298 297 296 295 294 294 295 296 295 294 295 295 295 295 296 297 298 298 297 297 296 296 295 295 296 295 294 293 292 293 293 292 292 292 292 292 292 290 290 289 288 289 288 288 288 287 287 288 287 288 288 288 289 289 290 289 290 288 284 284 284 287 291 288 288 289 289 288 289 289 288 288 288 288 288 289 287 287 287 286 286 286
299 298 298 297 295 295 294 294 294 295 294 294 295 294 293 293 294 294 296 296 297 297 297 297 297 297 296 295 294 295 294 294 293 294 293 293 293 293 292 292 291 290 290 290 289 289 289 288 288 288 287 288 288 289 289 289 290 289 290 290 284 283 283 282 282 283 288 290 289 289 289 290 289 289 289 289 287 287 287 287 286 286 286 286 285
297 298 297 297 296 295 294 294 293 293 294 294 293 293 291 292 292 292 292 294 295 295 295 297 298 297 296 296 294 295 294 295 295 295 295 294 293 292 292 292 291 290 290 290 290 289 289 289 288 288 288 287 288 289 289 289 290 290 287 284 283 282 282 282 286 282 282 284 288 289 289 289 288 288 287 287 288 287 286 285 285 286 286 285 284
Wind_Speed
13 12 12 11 12 13 12 11 11 10 10 11 11 10 10 10 9 8 9 9 9 8 8 8 8 8 7 7 7 7 7 7 5 6 6 6 5 6 7 7 8 6 6 5 4 6 6 7 5 4 4 7 5 5 6 5 5 5 4 5 5 5 6 5 7 6 1 1 1 2 1 2 2 3 4 4 5 4 3 3 4 4 4 4 4
14 13 12 12 13 13 12 11 10 9 11 11 11 10 10 10 10 10 9 9 9 9 9 7 7 8 8 8 8 7 7 7 6 6 7 7 6 5 6 7 7 7 6 7 5 5 6 7 5 4 4 7 6 6 5 5 6 6 4 6 6 5 3 5 4 6 6 1 1 1 1 1 4 2 4 5 5 5 6 5 3 3 4 4 4
13 12 12 12 13 12 12 11 11 11 12 10 11 11 10 10 10 11 9 8 8 9 9 8 8 8 8 8 8 7 7 7 6 7 7 8 8 6 6 7 8 8 7 7 6 5 6 6 6 5 4 7 6 5 5 6 5 6 5 4 6 4 3 6 8 4 7 3 1 1 0 1 2 3 3 1 2 2 4 5 5 4 3 3 4
13 13 12 12 13 12 12 11 12 12 12 10 12 11 10 10 10 9 9 9 8 6 7 8 8 8 8 8 8 7 7 7 7 6 8 8 8 8 7 6 7 7 8 7 7 6 7 7 6 6 6 7 6 5 4 5 5 6 6 4 5 6 5 5 6 7 3 5 1 2 1 1 1 0 1 0 1 2 2 4 3 3 4 4 3
13 13 13 13 13 13 13 12 12 12 12 10 12 11 11 10 9 11 11 10 9 10 7 6 8 8 8 9 8 8 7 7 8 7 6 6 8 8 7 7 7 7 7 7 5 7 7 7 7 6 7 8 5 5 5 6 5 6 6 4 5 5 5 5 5 5 7 6 4 1 1 1 1 1 1 3 2 1 2 2 4 4 5 4 2
14 14 13 13 13 14 13 12 13 13 12 11 11 11 10 10 9 8 10 11 9 9 9 7 7 8 8 8 8 8 8 8 8 8 8 7 6 7 7 7 7 6 6 6 6 6 7 7 7 7 7 8 6 5 5 6 5 6 6 5 4 5 6 5 5 6 7 5 5 3 2 1 1 0 1 3 3 3 5 5 1 1 5 7 6
14 14 14 14 14 14 14 13 12 12 11 11 10 10 10 9 9 8 8 10 11 9 7 8 6 8 8 8 8 8 8 8 7 8 8 8 8 8 7 6 6 6 5 6 5 5 6 7 7 6 7 7 8 7 6 6 6 6 5 6 4 7 6 5 6 6 6 5 2 2 2 0 1 1 1 2 2 2 3 4 5 3 2 3 5
15 14 14 14 14 14 13 12 12 12 10 10 10 10 9 8 9 9 9 9 9 9 9 9 7 7 7 7 7 7 8 7 7 7 8 8 7 7 7 7 7 6 6 5 5 5 6 6 6 6 7 7 8 7 7 7 6 6 4 5 5 7 7 5 6 6 5 4 2 3 1 1 1 2 1 1 2 1 1 1 3 4 6 3 2
15 15 14 14 14 13 12 11 10 10 11 11 10 10 10 10 10 10 10 9 7 8 8 8 8 8 7 7 7 7 7 7 7 8 8 7 7 8 7 7 7 7 6 5 5 5 5 5 5 5 5 6 7 7 6 7 8 7 4 5 6 7 6 5 5 5 4 5 3 1 2 1 1 2 3 1 1 1 1 0 2 2 3 5 4
15 15 15 14 13 13 12 11 11 11 11 12 11 11 11 11 10 10 9 9 9 8 9 8 7 9 8 7 7 6 6 5 7 11 9 8 7 6 6 6 7 7 7 6 5 4 5 5 5 7 8 8 8 8 8 6 3 6 9 7 7 7 7 7 6 5 6 5 5 4 4 3 3 3 2 3 2 1 1 1 2 3 3 4 3
15 15 14 13 13 13 12 12 12 12 12 12 11 12 11 10 10 10 10 10 10 9 9 9 8 8 9 8 8 6 6 6 11 12 12 12 8 7 7 6 6 6 6 7 7 5 4 3 3 5 6 6 6 7 7 7 7 7 9 7 6 10 10 7 6 6 6 5 4 3 4 4 4 3 3 3 2 2 2 1 1 0 2 2 3
15 15 14 13 14 14 12 12 12 12 12 12 12 12 11 11 11 10 10 9 8 8 9 9 8 7 7 7 7 7 6 8 13 12 12 13 10 8 7 7 6 6 6 6 6 6 5 4 3 3 4 5 6 5 5 6 7 8 8 7 6 4 5 8 9 6 6 6 5 5 4 4 3 3 3 1 3 1 1 1 2 2 1 1 1
15 14 14 14 15 14 13 13 12 12 11 12 12 12 12 11 10 10 10 9 9 10 9 8 8 7 7 8 7 6 6 9 13 13 12 13 12 9 7 7 7 7 6 7 7 6 6 5 5 4 3 7 5 5 6 5 5 7 7 7 6 6 6 4 3 7 7 7 6 5 6 4 3 4 4 3 1 3 2 1 1 2 2 2 3
14 14 14 14 15 14 14 13 12 12 11 10 10 12 13 13 11 10 9 9 9 9 8 8 7 8 8 8 7 6 6 9 13 13 13 13 13 10 7 8 7 7 8 7 7 7 7 7 6 5 4 6 7 9 8 6 6 5 4 4 5 5 4 5 5 7 8 6 7 6 6 5 5 4 4 4 3 2 2 3 1 3 2 4 4
14 14 14 14 14 14 15 14 13 12 13 12 11 10 11 11 12 10 10 11 11 10 10 9 8 8 7 7 7 7 6 11 13 14 13 13 13 9 7 6 6 6 6 7 7 7 7 6 7 8 7 4 3 5 7 7 6 4 4 4 5 5 4 4 4 5 5 4 5 6 5 6 6 4 3 3 4 3 3 2 2 2 3 5 5
14 14 14 14 14 15 15 14 13 13 13 13 13 11 10 11 12 10 9 7 7 8 7 7 9 9 8 8 7 7 6 12 13 14 14 14 13 7 7 7 7 7 6 6 6 6 7 8 7 5 6 5 6 8 7 6 6 6 5 5 5 4 5 6 5 4 5 6 6 6 5 6 5 4 3 3 2 2 1 1 0 1 2 3 4
14 15 15 14 14 14 14 14 13 13 13 13 14 14 13 10 9 10 10 9 10 9 9 9 8 9 9 8 9 7 7 11 14 15 14 15 11 6 7 6 7 7 7 7 7 7 7 7 8 6 4 5 7 9 7 7 6 6 6 5 5 4 6 5 5 7 8 7 7 6 5 6 6 6 5 5 4 2 2 1 3 2 1 3 3
14 14 14 14 14 14 14 14 14 13 13 14 13 12 12 11 11 10 11 10 10 10 9 8 8 9 10 10 10 9 8 10 14 14 15 17 13 9 8 8 7 7 7 6 6 6 7 11 8 9 9 8 10 12 10 8 6 6 6 5 5 6 6 4 3 2 2 5 6 7 7 8 7 7 8 6 7 7 5 4 3 4 2 2 3
14 14 14 13 13 13 13 13 14 14 13 13 13 13 12 12 11 10 9 9 11 10 9 9 8 7 9 10 11 10 8 9 13 14 16 16 12 8 8 8 8 7 7 7 5 5 5 9 13 10 9 10 12 11 12 10 7 7 7 6 6 7 7 4 5 4 3 3 4 3 4 4 3 3 2 3 5 9 7 5 2 3 3 3 3
14 13 13 12 12 12 11 12 13 14 14 12 8 8 9 11 11 11 9 8 9 9 9 9 10 9 8 8 9 10 9 8 11 15 14 15 14 10 7 8 9 9 7 7 7 6 6 6 9 13 14 13 12 12 12 13 8 7 5 6 6 9 6 4 5 5 4 5 3 1 3 3 4 3 2 3 3 6 6 5 4 4 4 4 3
12 13 13 13 12 12 12 13 13 12 13 14 14 13 11 11 12 12 11 9 9 8 10 9 9 9 8 8 8 8 8 9 10 15 15 16 15 13 9 10 9 9 8 8 8 9 8 6 6 10 13 13 12 12 12 13 11 7 7 7 9 4 4 5 6 3 3 2 1 1 2 3 3 3 3 3 3 4 4 5 5 5 5 4 3
12 12 14 14 13 13 13 12 14 12 10 10 12 11 10 10 12 12 11 11 12 11 9 8 8 6 5 6 7 9 8 11 9 13 16 17 16 16 10 11 11 10 8 8 7 7 8 8 7 10 14 14 14 13 13 14 15 9 8 11 9 5 5 4 3 3 3 1 1 2 2 2 2 2 2 2 3 3 3 3 4 5 5 6 6
12 13 12 13 13 13 12 14 12 10 12 12 12 11 10 10 9 9 11 11 12 11 10 8 8 6 5 5 5 6 6 7 12 12 15 17 17 16 17 13 12 9 10 8 8 9 8 8 9 11 13 14 13 14 14 15 11 9 12 12 9 8 3 3 3 4 3 2 1 3 4 3 3 3 3 3 2 2 2 2 4 4 5 5 5
13 13 13 13 12 12 12 12 12 11 12 11 10 11 10 9 9 9 10 11 10 10 8 8 8 8 8 6 5 5 5 5 8 13 12 16 16 17 16 14 14 10 9 9 8 8 8 8 8 12 13 14 15 15 14 12 10 13 13 11 9 6 4 4 4 4 3 2 3 4 5 4 3 3 3 2 2 3 4 3 3 5 5 5 5
14 13 13 12 12 11 11 11 11 11 11 11 11 10 10 10 9 8 10 10 10 10 9 9 10 9 8 8 7 6 6 6 5 9 13 14 16 16 15 13 15 13 9 7 8 8 9 11 11 11 12 13 15 13 11 12 13 11 11 8 5 3 4 4 4 4 4 4 4 4 5 5 5 4 2 2 3 3 3 4 2 2 3 4 6
14 13 11 12 12 12 12 11 11 12 12 11 12 12 13 12 11 10 9 10 10 10 10 9 9 8 8 7 7 6 5 5 5 5 7 9 9 12 13 11 11 13 12 7 10 11 9 7 9 9 9 8 6 6 7 9 13 14 9 7 4 5 5 5 4 5 5 5 5 5 5 3 3 3 2 2 3 5 2 3 4 3 2 3 4
13 13 12 11 12 12 14 12 10 10 11 10 9 9 10 10 11 11 10 10 10 9 9 9 8 8 8 7 6 6 6 6 6 5 5 6 7 8 8 8 7 6 6 6 5 5 7 8 8 8 6 8 7 3 3 4 4 4 4 5 5 5 6 6 7 7 6 5 5 6 5 4 2 3 4 3 4 5 3 4 3 5 3 0 1
14 13 13 12 11 13 12 14 15 11 11 11 10 9 9 10 11 12 12 11 10 9 9 9 9 10 9 7 7 6 6 6 7 8 8 7 7 7 7 7 7 8 8 7 5 4 4 3 4 4 4 5 4 3 4 4 4 4 4 5 5 5 5 3 3 4 4 5 5 4 4 3 4 5 3 3 5 5 2 4 4 4 2 1 1
13 13 12 11 11 11 12 13 11 12 11 11 10 12 13 12 12 10 9 10 12 13 12 11 12 10 9 10 10 8 7 8 11 11 12 12 12 9 8 9 8 8 9 9 6 4 5 4 4 3 4 6 3 4 4 4 4 4 4 4 4 5 5 5 6 7 6 5 6 6 6 4 5 4 3 4 6 6 2 4 4 5 2 2 5
11 12 11 12 12 12 11 11 12 11 11 11 10 5 8 5 5 9 9 8 10 9 8 9 8 9 9 8 10 12 12 14 13 13 12 13 14 15 15 14 13 9 9 13 9 6 6 7 7 7 6 4 5 5 6 5 5 5 5 5 5 5 6 6 6 6 6 7 7 6 6 5 6 5 5 5 6 4 3 5 5 4 4 4 5
10 10 11 11 12 11 11 11 10 10 10 11 10 10 7 6 10 8 8 8 9 10 11 12 12 10 10 9 7 5 1 4 11 15 14 14 15 14 12 11 11 11 13 10 4 5 5 6 6 5 4 5 4 6 6 5 4 4 5 6 5 6 5 6 6 6 6 4 5 5 5 5 6 5 5 6 6 5 2 3 3 3 5 4 4
13 12 11 10 12 12 11 11 11 11 10 9 9 10 9 8 5 10 8 11 11 12 13 13 15 15 14 11 9 6 6 10 13 14 15 14 14 15 13 12 12 14 15 12 5 4 5 6 4 5 5 5 5 6 5 6 6 7 5 4 6 7 7 8 8 6 6 6 4 4 4 5 6 6 6 6 4 5 4 3 4 5 4 3 6
15 13 12 11 11 10 11 11 11 11 11 11 9 9 10 9 9 7 8 10 9 9 11 11 14 15 13 10 13 12 11 11 14 14 15 16 15 13 13 12 12 12 11 5 5 5 5 6 7 7 6 6 6 6 6 6 6 6 6 6 5 7 7 5 4 6 5 6 3 4 4 4 5 6 4 4 4 4 5 5 4 4 3 4 4
13 11 10 12 11 11 11 11 11 10 9 10 11 10 9 10 9 9 9 6 5 7 7 4 9 12 12 13 13 12 12 13 13 14 14 14 14 11 9 6 9 12 11 8 7 6 7 8 7 7 7 5 5 5 6 5 5 5 5 6 6 5 5 5 6 6 6 4 4 4 4 5 5 4 4 4 3 3 3 5 4 3 3 5 5
11 13 18 14 11 11 10 11 10 10 10 10 9 9 9 8 9 10 10 10 10 9 7 2 2 8 10 10 12 13 13 13 13 13 13 12 12 14 13 9 6 4 5 5 7 7 8 8 8 7 7 8 7 7 6 6 5 5 6 6 5 5 5 6 7 6 6 5 4 5 5 4 6 6 5 4 3 3 4 4 3 4 5 5 5
9 8 9 13 11 10 10 9 10 10 10 9 9 8 8 9 9 8 7 6 7 7 5 3 4 2 6 7 9 11 12 12 13 13 12 14 16 17 8 5 6 6 6 6 7 7 7 6 6 7 7 8 6 6 6 6 6 6 5 5 6 6 6 6 6 5 6 5 4 4 3 4 5 4 3 3 6 6 4 4 3 3 4 5 2
10 9 9 8 8 8 7 8 8 8 8 9 9 8 8 8 7 7 7 7 7 6 6 6 5 4 3 4 6 8 8 8 9 10 11 15 18 12 7 8 7 7 7 7 6 6 6 7 6 6 6 7 7 6 5 5 5 6 6 7 7 7 7 7 6 4 3 4 4 3 4 4 3 3 4 4 4 3 3 3 2 2 3 3 3
7 10 9 8 8 9 9 8 8 10 9 8 8 8 8 8 9 9 8 8 8 8 8 7 6 8 9 7 5 6 6 8 11 9 8 9 7 5 5 6 7 8 8 7 7 7 7 6 6 7 6 6 7 6 7 8 7 6 6 6 5 5 7 6 5 6 5 5 4 4 4 5 4 4 4 5 5 4 3 3 3 3 3 3 3
7 8 11 10 8 8 8 8 9 9 8 8 8 9 9 9 8 8 7 7 8 7 7 8 8 8 7 6 6 6 9 6 6 5 5 5 7 6 7 6 7 7 7 7 7 7 6 6 7 6 5 6 7 6 7 7 5 6 7 6 4 5 5 4 4 4 4 5 5 4 4 4 3 4 4 5 5 4 3 3 3 4 3 3 4
8 8 8 11 7 8 8 8 8 8 8 9 8 8 9 9 9 9 9 9 8 8 8 9 9 8 7 8 7 7 7 7 7 7 6 5 6 7 7 7 8 8 8 7 6 6 7 5 5 5 6 6 7 7 6 6 6 7 5 4 5 5 6 5 5 5 6 5 4 4 4 4 4 3 3 4 4 4 4 4 4 4 4 3 3
7 8 8 8 8 8 7 8 8 8 8 8 9 9 9 9 8 8 8 8 8 8 8 8 7 6 7 10 12 12 8 8 7 6 7 7 7 7 6 7 8 7 7 7 6 6 6 5 5 6 6 6 6 7 6 6 5 5 5 5 4 5 5 5 6 6 6 6 5 5 4 4 3 4 4 5 5 4 4 3 2 3 3 4 3
8 7 7 7 9 8 8 8 7 8 8 9 9 9 8 8 8 8 8 8 8 8 7 6 5 6 8 14 15 14 7 5 5 6 5 5 6 7 7 6 6 6 6 7 7 7 7 6 6 5 6 6 6 6 6 6 5 5 5 5 5 5 5 6 5 5 5 5 4 4 4 4 4 4 5 4 3 4 3 4 4 3 3 4 3
7 8 7 7 7 7 7 7 7 7 7 7 7 6 7 8 8 8 7 7 7 7 7 6 5 5 7 10 12 12 5 5 5 7 6 6 6 5 6 6 6 6 6 5 5 6 6 6 6 6 5 7 6 6 6 6 5 5 4 5 5 5 5 4 4 4 3 4 4 5 6 4 4 4 4 4 4 4 4 5 4 3 4 4 3
8 8 8 7 6 5 4 6 6 6 6 6 7 7 7 6 6 6 7 7 7 7 6 6 6 6 6 6 6 7 6 6 6 6 7 6 6 5 5 4 5 5 5 5 5 5 5 4 4 5 5 6 6 6 6 6 4 4 4 4 4 5 4 4 4 5 5 5 5 5 5 5 5 4 4 4 4 5 4 4 4 4 3 2 2
7 7 7 6 6 6 4 4 6 7 8 7 7 7 7 7 7 6 6 6 6 6 6 6 6 6 6 6 7 8 7 7 6 6 6 6 6 5 5 4 5 5 5 5 5 6 6 4 4 4 5 5 6 6 7 6 6 6 4 4 4 5 5 6 7 6 4 4 4 4 4 3 4 4 5 5 6 5 4 4 4 4 2 2 3
8 8 7 7 7 6 6 5 6 7 7 7 7 7 6 6 6 7 6 6 6 6 6 6 6 7 7 7 6 7 7 6 6 6 5 5 5 5 4 4 5 5 6 5 5 7 5 5 4 5 5 4 6 6 6 6 6 6 6 6 6 6 8 7 3 2 3 4 4 3 3 3 4 4 5 4 3 3 4 2 2 3 3 3 3
6 6 7 7 7 7 6 6 6 6 6 6 6 6 6 6 6 6 6 7 7 7 6 6 6 7 7 7 7 7 7 6 6 6 6 6 5 5 5 4 5 4 5 5 6 6 5 4 4 5 5 4 5 6 5 5 5 5 6 6 6 7 6 4 3 4 4 4 4 3 3 3 4 3 3 2 2 2 3 3 4 4 3 2 2
5 6 6 6 6 6 6 6 6 6 6 6 6 6 5 5 5 6 5 6 6 6 6 6 6 6 7 6 6 5 6 5 5 5 4 5 5 5 5 5 4 4 4 5 5 4 4 4 4 4 4 4 4 5 6 5 5 6 6 6 6 7 7 6 5 5 4 3 4 4 4 3 3 2 2 3 3 3 3 3 2 1 2 2 2
8 7 7 7 7 7 7 6 6 6 6 6 6 6 5 6 6 5 6 6 6 5 6 6 6 6 5 5 4 4 4 4 4 4 5 5 5 5 5 5 4 5 4 4 4 6 6 6 4 4 4 4 6 6 6 6 6 6 7 6 7 11 10 9 6 6 6 3 3 3 3 3 3 3 3 3 3 3 3 2 2 2 2 1 2
6 7 7 7 7 6 5 6 6 6 6 6 6 6 6 6 6 5 6 5 5 5 5 5 6 5 5 5 5 5 5 5 6 6 5 5 5 5 5 5 5 5 5 4 4 6 6 6 7 5 4 6 6 6 6 6 7 6 6 7 9 9 9 10 10 9 6 3 3 3 4 3 3 2 2 2 3 3 3 2 2 2 2 3 3
6 6 6 6 7 7 7 7 7 6 7 7 6 6 7 6 6 5 5 5 5 5 5 4 4 5 5 5 6 5 6 6 5 5 5 5 5 5 5 5 6 6 6 6 6 6 6 6 4 4 4 4 4 6 6 5 5 6 7 8 9 9 9 8 6 7 9 5 3 3 3 3 3 3 2 2 2 2 3 3 3 3 2 3 3
Wind_Direction
178 179 173 179 175 179 180 178 177 171 164 162 159 159 157 158 158 149 154 156 152 153 154 154 150 146 143 147 146 146 143 142 141 135 127 129 135 138 134 132 130 131 126 113 112 133 129 124 131 120 129 100 90 89 85 96 94 95 106 114 121 153 134 114 123 118 71 313 205 178 272 250 48 351 31 10 7 5 17 15 0 357 356 348 333
182 177 175 175 179 180 179 177 173 170 164 163 161 158 156 155 150 159 164 157 153 151 151 151 149 144 146 147 148 147 147 143 142 138 134 138 136 142 137 135 135 134 132 134 146 139 134 126 121 104 88 104 102 88 99 101 107 106 110 127 133 151 161 113 110 130 144 255 130 291 261 310 93 340 44 13 0 353 357 353 353 3 345 339 335
176 172 173 175 178 175 172 176 174 171 166 167 164 159 155 151 162 165 160 140 147 151 148 150 149 145 145 148 147 150 149 145 148 145 144 149 148 143 145 146 148 148 150 156 152 141 127 126 130 122 112 96 91 96 99 100 94 101 103 98 115 122 118 124 129 111 140 149 228 349 309 304 102 63 11 357 325 327 332 350 340 326 339 335 328
173 173 174 175 172 170 173 173 173 173 171 170 166 159 151 156 164 151 138 154 147 128 146 146 147 149 149 151 153 149 146 145 147 149 150 152 150 150 151 155 155 158 159 157 150 147 138 130 144 132 118 109 110 105 88 93 95 96 95 79 102 100 101 97 115 128 155 132 246 187 237 92 112 140 333 307 337 331 344 310 301 314 332 340 326
171 174 171 169 170 172 173 172 174 174 172 169 166 155 156 159 155 153 153 147 148 142 144 147 150 153 156 158 155 154 153 148 144 144 148 154 152 152 155 155 161 163 161 154 152 146 147 145 146 135 130 119 118 112 111 102 93 95 90 80 84 85 78 99 108 112 127 132 144 288 314 287 310 297 3 20 329 325 297 347 331 329 331 322 307
174 171 169 168 172 173 172 172 175 174 170 167 162 157 156 157 152 153 151 141 142 147 146 155 159 158 157 160 156 151 149 152 151 151 149 147 146 149 151 155 157 154 150 150 145 150 147 140 142 145 142 137 144 131 121 115 104 97 101 89 91 86 94 85 90 105 108 122 129 127 8 6 4 302 359 2 17 0 351 341 343 73 356 348 336
172 171 171 172 172 174 172 175 174 171 169 162 156 153 155 152 140 128 132 149 150 147 147 154 161 158 159 155 154 152 150 149 149 150 150 149 150 148 150 151 148 143 143 140 134 133 135 138 145 154 150 147 146 150 138 124 117 117 118 118 109 107 102 101 108 109 118 120 75 72 121 282 64 331 92 335 344 57 15 342 343 342 21 2 321
171 172 171 174 175 174 173 171 171 169 163 157 155 151 145 139 136 142 151 152 154 156 156 159 152 154 155 156 151 149 149 148 148 151 152 154 152 155 155 152 145 136 126 121 125 127 140 146 152 160 157 157 152 153 149 138 121 117 119 117 120 113 112 115 110 114 126 122 106 157 22 204 299 261 255 208 114 19 48 353 303 320 332 329 250
171 171 172 175 176 171 165 166 167 162 159 154 148 144 143 149 154 151 156 158 153 155 150 145 147 149 150 151 149 152 154 158 158 156 153 155 156 155 157 153 149 136 124 115 116 129 140 153 157 156 163 163 161 154 158 149 143 136 156 145 134 121 116 113 120 124 127 127 123 28 138 103 267 329 329 9 116 270 204 209 265 276 298 314 302
171 171 174 175 168 162 161 162 164 160 157 155 149 146 148 152 152 154 158 154 152 150 149 151 156 155 152 148 152 156 160 159 166 161 157 155 157 154 150 149 145 138 129 123 119 133 151 158 168 170 166 157 148 145 143 146 143 154 156 163 147 130 138 136 142 150 143 148 166 158 147 201 244 226 229 250 252 173 166 149 321 321 311 305 277
172 172 172 166 160 156 158 163 162 163 162 153 149 150 153 155 158 157 156 153 152 151 150 156 160 159 158 156 158 163 162 164 162 162 160 154 150 154 155 146 139 137 140 142 147 149 144 141 184 169 152 137 130 139 143 138 132 137 151 166 173 156 147 147 161 162 160 164 171 175 180 193 244 223 230 269 242 258 304 194 242 215 71 18 335
172 172 166 159 158 158 161 161 163 164 159 155 152 154 156 156 157 156 153 153 150 146 156 164 156 153 150 151 158 163 165 166 161 164 161 158 157 153 150 149 146 146 144 147 144 145 146 132 105 98 117 133 131 127 126 125 135 145 154 166 179 200 181 158 159 171 173 162 177 206 175 197 236 194 254 253 258 228 191 241 230 220 195 223 223
170 167 162 160 161 160 159 162 164 160 158 157 155 151 154 156 154 153 161 158 148 152 162 151 154 151 151 155 161 164 164 165 165 166 164 161 155 148 148 149 147 149 149 149 150 144 138 126 107 90 111 128 119 123 128 137 142 146 154 168 187 192 206 214 185 169 162 158 178 197 199 183 190 235 210 210 141 302 322 302 193 200 219 254 238
166 163 161 162 161 160 160 163 164 159 151 150 155 158 158 161 161 159 152 150 155 150 151 152 147 155 158 160 159 163 167 171 169 169 167 164 157 151 152 154 151 150 153 154 155 152 146 142 137 123 139 161 169 155 151 151 141 146 163 178 193 203 218 207 195 162 170 169 168 190 219 180 202 211 214 157 152 223 218 264 234 289 255 262 277
163 160 161 162 159 160 161 163 162 158 156 154 157 161 164 157 156 156 157 162 159 159 157 155 158 155 155 154 158 168 186 172 173 172 169 165 161 150 146 144 140 146 152 157 159 154 148 142 152 168 181 155 170 157 152 156 143 152 187 210 214 224 222 225 217 191 191 176 183 203 197 201 227 214 185 194 207 214 208 272 311 297 307 289 261
162 159 159 162 162 162 162 162 161 159 159 158 158 161 165 163 157 153 153 158 151 138 143 149 155 159 159 160 163 178 183 178 176 175 170 165 157 149 147 150 147 147 152 155 153 153 159 160 148 156 170 171 182 184 173 152 140 156 198 219 238 248 247 234 232 226 218 199 197 202 207 214 217 221 181 195 209 224 275 341 336 270 313 316 317
163 164 164 164 163 163 162 160 161 161 159 162 165 163 161 161 157 150 151 160 151 152 159 165 163 159 163 169 174 179 184 187 183 176 168 159 155 149 151 141 143 155 167 171 168 166 168 162 150 145 141 193 200 198 191 164 167 180 190 204 225 235 248 248 225 226 230 233 239 247 258 261 258 263 255 240 230 165 141 250 255 154 193 318 306
167 165 164 163 162 161 161 160 160 161 161 164 168 166 161 157 157 156 157 160 156 159 161 159 161 167 170 177 183 180 190 184 184 177 165 167 165 159 159 150 158 163 169 175 166 173 168 159 161 161 191 204 196 194 192 180 187 191 192 200 213 234 253 252 286 263 217 234 249 254 257 266 267 270 264 242 205 185 176 218 206 143 232 199 280
165 165 161 158 157 159 159 160 161 161 166 168 165 164 165 163 155 157 161 162 155 154 160 161 164 173 183 184 182 180 183 180 182 178 172 170 165 157 157 158 157 171 170 170 157 152 197 185 186 188 192 200 197 193 191 188 195 193 195 194 216 227 234 201 202 207 217 226 250 227 268 257 248 239 262 272 205 196 213 235 130 187 260 261 256
168 156 149 152 156 156 158 159 162 164 165 161 151 149 152 147 153 155 156 156 154 158 161 164 168 181 181 180 185 187 179 174 178 176 175 176 170 157 156 152 172 177 179 168 167 184 198 219 208 202 200 200 199 195 196 195 194 197 183 200 214 231 218 190 216 205 203 202 238 310 277 297 291 305 277 242 213 203 212 214 207 197 222 254 234
150 151 149 151 155 157 158 162 160 165 166 159 160 158 163 164 157 157 153 153 152 158 164 170 179 182 184 184 177 182 181 172 177 177 175 179 175 161 169 174 176 172 178 182 182 185 201 208 219 207 204 204 201 200 200 200 203 194 198 209 214 216 125 195 214 198 184 177 300 289 289 302 273 244 233 221 211 201 208 208 205 204 199 217 231
145 145 149 153 155 157 159 164 161 158 156 160 156 158 161 161 161 157 151 153 157 164 167 167 171 171 171 173 187 186 179 172 159 177 178 181 183 172 164 188 183 176 174 190 188 196 207 206 212 208 202 203 202 201 203 203 206 204 210 218 219 165 187 201 165 149 172 161 267 276 275 292 301 300 274 243 228 203 212 222 213 216 214 209 199
142 144 147 152 157 159 162 161 158 159 160 163 159 152 149 149 154 153 150 154 157 159 166 165 162 161 161 177 189 186 177 168 164 175 187 184 188 185 185 186 181 172 176 182 192 204 208 207 212 203 197 200 201 201 204 207 204 214 218 218 213 198 194 156 152 162 167 184 198 261 266 263 273 267 273 273 284 276 241 199 216 217 234 234 230
142 148 153 155 157 160 160 160 157 156 157 154 150 145 145 149 152 157 156 155 156 158 165 165 164 162 172 182 191 183 177 174 180 178 182 191 194 196 195 182 171 186 183 191 195 202 201 206 207 198 198 201 203 203 204 199 206 215 220 216 199 182 177 154 165 179 169 182 221 251 257 244 241 260 246 230 258 302 289 247 219 208 222 243 231
149 155 159 161 160 156 155 156 158 157 153 150 147 150 147 149 153 162 159 159 161 163 169 170 174 176 169 184 189 182 175 179 174 184 186 192 198 201 201 186 186 182 184 201 194 199 206 203 204 200 203 206 209 207 206 206 214 221 223 206 172 168 185 182 179 162 195 221 228 241 256 243 227 238 264 286 280 287 289 283 227 184 225 242 249
153 159 162 160 156 152 154 155 156 154 153 157 158 160 158 161 162 164 165 166 169 168 167 171 171 169 180 185 187 175 155 160 173 177 185 186 197 208 205 198 193 196 200 197 199 196 193 195 202 209 207 210 200 194 198 209 210 215 207 178 177 180 179 173 176 184 212 211 214 230 244 251 244 242 265 303 307 271 288 290 314 293 10 321 321
154 157 158 156 151 152 154 156 153 153 154 154 157 159 160 160 160 161 168 169 168 165 161 164 165 169 186 184 164 159 166 176 184 181 173 179 190 192 193 203 195 186 216 214 198 183 172 180 192 189 181 183 190 196 221 214 196 196 189 192 188 185 184 192 196 195 200 208 221 230 236 230 281 291 261 240 262 258 192 242 253 270 265 341 249
158 160 158 154 156 157 157 153 152 155 157 155 154 157 165 164 162 169 174 172 166 165 163 167 174 184 186 168 156 159 176 191 196 188 189 186 177 171 181 181 182 193 194 201 175 153 148 142 131 131 143 129 155 156 186 198 204 190 195 185 187 185 186 181 174 193 206 204 229 243 263 213 246 237 239 241 250 261 203 208 214 235 197 158 241
153 151 151 151 152 156 155 160 160 158 158 160 167 167 169 172 172 181 183 172 172 168 172 181 189 185 167 163 162 171 187 203 216 199 189 181 172 168 171 190 188 189 197 157 117 105 110 138 155 158 169 180 162 183 202 200 220 209 202 193 171 178 177 178 192 199 200 186 220 225 239 224 237 230 232 254 246 244 177 225 232 224 199 156 235
150 153 156 157 156 158 161 164 161 160 159 155 144 92 35 85 167 173 173 176 171 175 177 181 167 158 163 175 174 172 185 210 207 176 183 182 185 184 188 185 184 178 155 154 147 142 168 180 191 192 185 170 187 197 205 205 210 206 213 202 184 184 191 197 204 208 195 209 222 223 235 222 241 225 214 234 265 244 211 211 222 185 193 209 231
154 159 161 164 164 161 159 158 158 156 158 155 152 145 133 53 46 80 133 136 144 137 135 120 131 159 167 172 200 225 200 122 150 179 184 185 188 192 188 180 170 147 137 126 138 166 177 194 205 200 193 190 203 211 205 199 210 207 206 191 205 203 202 205 210 202 204 213 223 231 236 225 243 241 230 228 240 260 199 222 223 190 205 203 216
163 167 168 162 160 159 157 154 153 154 154 150 149 151 147 132 94 33 70 139 136 141 145 148 161 172 185 178 166 169 151 159 165 173 185 186 189 193 187 175 166 160 170 155 144 173 185 191 191 198 183 200 218 217 201 195 205 202 202 193 210 202 198 218 208 187 196 205 219 224 226 228 235 244 238 239 233 258 251 225 210 204 212 186 224
160 161 160 157 158 153 150 153 156 154 155 150 150 152 149 154 143 126 39 49 96 136 152 153 166 176 178 167 167 172 176 169 170 175 180 188 188 189 185 176 167 156 134 146 174 182 193 186 191 190 188 209 203 198 206 206 201 200 193 202 212 207 212 211 159 196 202 209 200 223 218 219 221 231 232 228 213 238 230 233 217 217 200 213 229
153 151 151 153 153 153 154 155 157 161 153 156 160 161 162 158 155 142 135 131 72 42 52 112 170 169 171 163 167 179 173 165 170 175 179 182 183 173 144 120 134 158 165 179 180 198 185 192 201 199 203 208 207 200 209 211 206 202 204 211 220 206 201 174 184 205 200 194 208 231 231 230 216 218 238 224 216 232 246 238 216 196 205 202 223
157 156 151 149 153 153 155 155 156 155 154 162 158 156 155 154 146 151 161 163 166 168 173 118 112 173 173 179 184 178 170 169 170 170 172 172 149 132 120 115 116 150 192 198 193 195 196 202 205 208 206 213 214 206 213 207 210 209 212 216 218 207 185 190 205 193 195 190 201 219 223 232 232 223 230 228 201 212 224 230 221 211 216 217 209
125 130 146 149 149 156 162 163 159 159 160 160 159 151 146 147 153 161 152 139 139 140 117 137 142 162 168 176 177 171 168 169 169 169 167 151 145 139 138 159 155 177 186 193 197 205 202 204 203 210 202 217 213 193 201 201 206 212 213 210 220 208 205 205 212 206 201 199 210 217 219 234 235 233 224 231 223 226 224 219 221 206 208 227 206
143 150 156 155 151 147 149 151 153 154 144 137 137 135 138 133 130 133 140 148 150 144 138 129 118 103 96 152 159 161 154 142 130 138 151 159 162 164 170 163 173 165 187 191 197 199 202 214 206 206 203 209 213 202 187 199 206 213 218 219 217 214 209 209 211 206 199 205 218 209 220 241 233 216 198 224 230 227 232 231 228 225 214 212 190
145 150 154 153 147 142 143 146 140 131 134 138 138 137 135 139 144 150 151 154 150 147 148 157 163 164 176 186 152 150 119 111 107 104 126 144 162 190 179 170 172 173 184 190 190 195 207 207 196 205 206 198 210 200 195 208 203 203 211 219 218 225 227 221 216 206 211 208 203 191 204 225 215 199 189 209 228 221 210 201 197 218 215 201 192
122 122 127 137 142 144 141 137 142 143 143 142 143 141 141 142 141 143 148 145 148 150 154 162 174 183 183 148 145 134 123 140 169 176 165 175 182 187 181 178 180 190 187 189 189 195 208 206 201 197 196 194 205 206 203 214 203 202 211 209 220 221 224 223 222 218 209 217 216 201 198 206 185 190 192 202 219 213 206 205 201 204 214 214 201
135 128 131 127 118 119 131 139 141 141 146 143 144 142 140 148 154 157 154 153 158 160 167 173 185 190 165 155 154 157 172 175 181 177 178 180 185 183 181 181 190 193 195 194 193 199 204 213 190 189 194 198 202 210 205 205 204 203 193 204 214 220 221 218 220 214 217 218 221 212 207 205 190 176 182 203 213 188 195 203 203 206 212 225 225
116 123 128 126 124 123 128 140 147 149 149 149 146 152 159 155 151 148 151 156 159 166 177 184 184 172 168 176 172 175 175 180 179 178 183 184 182 179 187 193 188 194 194 192 196 197 204 202 200 197 201 200 200 199 196 191 196 187 201 207 210 221 220 216 217 218 220 216 217 220 219 213 182 170 201 213 204 195 196 205 203 193 202 212 223
120 122 125 130 139 146 148 153 147 145 144 143 152 154 149 154 154 158 160 163 166 172 173 175 167 164 167 168 177 185 182 170 161 174 183 185 183 193 193 189 193 191 186 193 193 196 201 201 196 189 192 193 189 196 191 198 199 202 202 205 211 220 228 231 225 228 224 226 231 233 241 222 200 202 217 208 171 184 186 198 209 200 196 209 210
135 134 133 138 144 153 151 143 140 139 140 148 152 141 141 145 150 151 155 159 163 169 171 169 163 153 166 178 179 181 184 169 174 181 185 192 196 192 181 190 186 191 195 198 192 189 187 193 197 195 198 199 197 194 193 203 198 197 193 202 210 213 222 227 215 214 217 221 234 235 234 231 210 213 211 198 186 174 198 203 200 201 207 208 204
133 129 125 123 108 101 115 130 130 130 130 121 117 123 134 134 137 146 153 160 166 173 175 170 165 159 151 150 154 170 190 186 185 188 186 188 190 190 189 187 181 171 188 189 186 174 177 188 202 204 200 205 203 202 203 201 190 189 193 196 199 210 212 217 217 216 210 216 229 238 236 231 222 217 206 187 177 192 203 207 206 208 208 207 197
119 118 117 118 120 124 124 119 124 122 120 122 130 135 141 143 150 156 158 161 168 173 172 165 158 151 148 160 175 186 190 194 191 185 189 191 192 194 187 180 182 187 185 183 171 172 184 193 199 200 206 208 193 194 200 197 191 196 185 188 194 201 213 218 222 225 207 213 228 224 227 220 216 211 207 190 188 191 198 199 204 201 206 211 199
127 129 130 131 130 130 133 130 125 127 135 138 139 144 149 150 152 158 164 165 166 173 167 163 164 166 168 171 183 190 192 188 193 194 191 190 189 193 184 181 175 177 177 170 169 181 190 193 197 203 206 203 192 197 196 198 194 194 190 188 200 212 215 216 212 181 196 201 212 221 215 213 216 212 210 184 180 186 205 197 193 206 206 204 203
122 127 132 133 132 133 128 128 128 129 127 132 136 140 150 155 156 158 165 170 169 170 164 166 166 175 177 175 181 191 189 187 188 187 197 199 192 185 182 180 179 180 174 173 175 182 190 195 199 205 210 204 191 195 199 197 200 195 192 198 207 219 227 215 202 205 204 201 198 196 205 206 212 211 202 183 159 182 192 210 205 208 207 205 197
116 120 113 111 115 121 125 125 126 128 131 136 141 144 148 150 154 162 165 169 170 173 169 170 179 179 178 183 184 180 181 187 183 185 185 196 197 190 185 189 191 185 171 180 187 183 189 195 197 202 209 207 203 204 197 198 195 200 199 205 209 215 223 216 210 214 211 199 192 203 199 203 202 198 174 174 191 175 196 213 199 193 181 187 187
133 127 129 135 137 137 142 142 142 147 150 145 141 146 152 159 168 169 168 175 171 168 167 171 171 170 175 176 165 170 163 167 184 191 198 202 193 192 191 187 178 175 180 193 190 193 192 191 193 198 198 200 199 202 201 200 201 202 207 203 217 224 226 222 220 221 212 198 195 192 192 192 193 190 183 189 189 186 192 172 165 163 153 141 144
121 126 131 134 135 139 137 139 144 142 141 147 148 151 155 154 156 163 167 166 165 165 169 164 162 165 165 159 165 170 172 190 200 203 201 195 191 185 181 179 179 184 191 198 190 187 190 190 194 196 199 198 199 201 200 205 205 206 204 214 217 216 223 223 226 230 213 190 191 182 185 181 184 181 174 173 166 166 174 167 143 136 141 139 136
120 126 137 140 140 142 143 144 144 148 147 151 152 153 156 162 166 163 160 162 167 171 169 163 155 147 160 167 175 179 189 198 198 190 177 181 183 182 181 182 189 194 196 193 188 189 189 187 190 194 197 198 198 199 202 209 208 207 214 216 214 216 222 221 224 221 208 192 170 168 174 185 176 176 167 162 154 162 155 139 136 140 144 142 135